Location: Zagreb
(45.8000°N, 16.0000°E)
Time: 07:07:59
(UTC+01:00)

N. Korean satellite - Pass Details

Date: 11 December 2021
Orbit: 447 x 491 km, 97.3° (Epoch: 23 January)

Event Time Altitude Azimuth Distance (km) Brightness Sun altitude
Rises 04:03:29 0° 35° (NE) 2,458 10.6 -34.5°
Enters shadow 04:04:14 - 41° (NE) 2,216 10.4 -34.3°
Exits shadow 04:08:14 11° 96° (E) 1,550 9.9 -33.6°
Drops below altitude 10° 04:08:39 10° 103° (ESE) 1,579 9.9 -33.6°
Sets 04:12:14 0° 144° (SE) 2,449 10.6 -32.9°
